K1YMI Weather Reports


Display with metric or nautical units.
time (UTC)temp
F
wind
direction
speed
MPH
gust
MPH
rain 1hr
in
rain 24hr
in
rain mn
in
humidity
%
barometer
mb
20260510033515 20 64 2.0 5.0 0.00 0.00 0.00
20260510032515 21 68 2.0 6.0 0.00 0.00 0.00
20260510031515 21 65 2.0 5.0 0.00 0.00 0.00
20260510030515 21 66 2.0 5.0 0.00 0.00 0.00
20260510025515 21 53 3.0 6.0 0.00 0.00 0.00
20260510024515 21 72 5.0 10.0 0.00 0.00 0.00
20260510023515 21 69 4.0 10.0 0.00 0.00 0.00
20260510022516 21 60 4.0 10.0 0.00 0.00 0.00
20260510021535 21 60 4.0 7.0 0.00 0.00 0.00
20260510020516 21 84 2.0 7.0 0.00 0.00 0.00
20260510015515 20 88 1.0 5.0 0.00 0.00 0.00
20260510014515 21 56 3.0 8.0 0.00 0.00 0.00
20260510012515 21 72 3.0 8.0 0.00 0.00 0.00
20260510011515 21 74 3.0 6.0 0.00 0.00 0.00
20260510010515 21 96 2.0 5.0 0.00 0.00 0.00
20260510005515 20 91 2.0 8.0 0.00 0.00 0.00
20260510004515 18 63 2.0 5.0 0.00 0.00 0.00
20260510003515 20 57 3.0 6.0 0.00 0.00 0.00
20260510002515 20 64 3.0 9.0 0.00 0.00 0.00
20260510001515 19 93 4.0 8.0 0.00 0.00 0.00
20260510000516 20 60 4.0 10.0 0.00 0.00 0.00
20260509235516 20 51 4.0 7.0 0.00 0.00 0.00
20260509234515 20 77 3.0 9.0 0.00 0.00 0.00
20260509233535 20 116 2.0 7.0 0.00 0.00 0.00
20260509232515 21 73 3.0 7.0 0.00 0.00 0.00
20260509231515 21 86 3.0 8.0 0.00 0.00 0.00
20260509230515 21 83 2.0 6.0 0.00 0.00 0.00
20260509225515 21 61 3.0 7.0 0.00 0.00 0.00
20260509224515 21 64 3.0 7.0 0.00 0.00 0.00
20260509223535 21 79 4.0 10.0 0.00 0.00 0.00
20260509222536 21 67 4.0 8.0 0.00 0.00 0.00
20260509221515 21 67 5.0 10.0 0.00 0.00 0.00
20260509220515 21 88 4.0 8.0 0.00 0.00 0.00
20260509215535 22 67 3.0 7.0 0.00 0.00 0.00
20260509214515 22 71 3.0 7.0 0.00 0.00 0.00
20260509213535 22 77 2.0 6.0 0.00 0.00 0.00
20260509212516 22 69 4.0 9.0 0.00 0.00 0.00
20260509211515 22 56 4.0 7.0 0.00 0.00 0.00
20260509210515 22 69 4.0 11.0 0.00 0.00 0.00
20260509205515 22 65 2.0 8.0 0.00 0.00 0.00
20260509204516 19 65 4.0 9.0 0.00 0.00 0.00
20260509203515 19 74 5.0 9.0 0.00 0.00 0.00
20260509202515 19 60 5.0 11.0 0.00 0.00 0.00
20260509201516 19 77 5.0 11.0 0.00 0.00 0.00
20260509200515 19 80 5.0 12.0 0.00 0.00 0.00
20260509195515 19 76 3.0 9.0 0.00 0.00 0.00
20260509194515 19 88 4.0 8.0 0.00 0.00 0.00
20260509193515 19 75 5.0 9.0 0.00 0.00 0.00
20260509192515 18 76 3.0 8.0 0.00 0.00 0.00
20260509191515 18 80 3.0 5.0 0.00 0.00 0.00
20260509190515 18 69 3.0 7.0 0.00 0.00 0.00
20260509185515 18 75 3.0 7.0 0.00 0.00 0.00
20260509184515 18 83 3.0 9.0 0.00 0.00 0.00
20260509183515 18 82 3.0 10.0 0.00 0.00 0.00
20260509182515 18 59 4.0 9.0 0.00 0.00 0.00
20260509181516 19 97 2.0 7.0 0.00 0.00 0.00
20260509180515 19 74 3.0 7.0 0.00 0.00 0.00
20260509175536 19 69 2.0 5.0 0.00 0.00 0.00
20260509174516 18 82 4.0 10.0 0.00 0.00 0.00
20260509173515 18 60 4.0 8.0 0.00 0.00 0.00
20260509172515 18 95 3.0 8.0 0.00 0.00 0.00
20260509171535 18 96 2.0 7.0 0.00 0.00 0.00 100 1005.1
20260509170516 18 81 4.0 9.0 0.00 0.00 0.00 100 1005.2
20260509165535 19 67 4.0 9.0 0.00 0.00 0.00 100 1005.2
20260509164515 19 81 4.0 8.0 0.00 0.00 0.00 100 1005.4
20260509163515 19 73 5.0 9.0 0.00 0.00 0.00 100 1005.5
20260509162515 18 59 4.0 9.0 0.00 0.00 0.00 100 1005.5
20260509161515 18 70 3.0 10.0 0.00 0.00 0.00 100 1005.7
20260509160515 18 67 3.0 7.0 0.00 0.00 0.00 100 1005.9
20260509155515 18 84 4.0 10.0 0.00 0.00 0.00 100 1006.1
20260509154515 18 79 4.0 9.0 0.00 0.00 0.00 100 1006.3
20260509153515 18 70 3.0 7.0 0.00 0.00 0.00 100 1006.3
20260509152515 18 95 3.0 8.0 0.00 0.00 0.00 100 1006.3
20260509151535 18 73 5.0 9.0 0.00 0.00 0.00 100 1006.4
20260509150515 18 85 5.0 10.0 0.00 0.00 0.00 100 1006.4
20260509145556 18 73 4.0 7.0 0.00 0.00 0.00 100 1006.5
20260509144536 17 69 3.0 9.0 0.00 0.00 0.00 100 1006.5
20260509143515 18 68 3.0 9.0 0.00 0.00 0.00 100 1006.6
20260509142515 18 61 3.0 8.0 0.00 0.00 0.00 100 1006.7
20260509141515 18 87 2.0 5.0 0.00 0.00 0.00 100 1006.7
20260509140515 18 91 2.0 6.0 0.00 0.00 0.00 100 1006.7
20260509135515 18 77 4.0 6.0 0.00 0.00 0.00 100 1006.8
20260509134515 17 70 3.0 8.0 0.00 0.00 0.00 100 1006.8
20260509133515 17 80 3.0 8.0 0.00 0.00 0.00 100 1006.7
20260509132515 17 87 3.0 7.0 0.00 0.00 0.00 79 1006.6
20260509131515 17 73 3.0 7.0 0.00 0.00 0.00 82 1006.7
20260509130515 17 84 3.0 7.0 0.00 0.00 0.00 58 1006.8
20260509125535 17 74 3.0 6.0 0.00 0.00 0.00 37 1006.8
20260509124515 17 102 1.0 5.0 0.00 0.00 0.00 100 1007.0
20260509123515 16 73 1.0 3.0 0.00 0.00 0.00 100 1007.1
20260509122516 16 0.0 0.0 0.00 0.00 0.00 100 1007.2
20260509121515 16 0.0 0.0 0.00 0.00 0.00 100 1007.1
20260509120556 16 90 1.0 5.0 0.00 0.00 0.00 100 1007.0
20260509115515 16 93 2.0 6.0 0.00 0.00 0.00 100 1007.0
20260509114515 16 99 1.0 5.0 0.00 0.00 0.00 100 1007.1
20260509113515 16 85 1.0 5.0 0.00 0.00 0.00 100 1007.2
20260509112535 16 89 2.0 5.0 0.00 0.00 0.00 100 1007.2
20260509111515 16 132 1.0 4.0 0.00 0.00 0.00 100 1007.1
20260509110515 16 70 0.0 3.0 0.00 0.00 0.00 100 1006.9
20260509105515 16 92 1.0 4.0 0.00 0.00 0.00 100 1007.0
20260509104515 15 112 0.0 4.0 0.00 0.00 0.00 100 1007.0
20260509103515 15 75 0.0 5.0 0.00 0.00 0.00 100 1006.8
20260509102515 15 65 2.0 6.0 0.00 0.00 0.00 100 1006.8
20260509101515 15 65 3.0 9.0 0.00 0.00 0.00 100 1006.4
20260509100515 15 85 4.0 9.0 0.00 0.00 0.00 100 1006.4
20260509095515 15 78 4.0 9.0 0.00 0.00 0.00 100 1006.2
20260509094515 15 70 2.0 8.0 0.00 0.00 0.00 100 1006.3
20260509093515 14 103 1.0 4.0 0.00 0.00 0.00 100 1006.5
20260509092515 14 62 1.0 4.0 0.00 0.00 0.00 100 1006.5
20260509091515 14 87 2.0 4.0 0.00 0.00 0.00 100 1006.4
20260509090516 14 117 2.0 5.0 0.00 0.00 0.00 100 1006.3
20260509085516 14 87 3.0 6.0 0.00 0.00 0.00 100 1006.4
20260509084556 13 95 2.0 6.0 0.00 0.00 0.00 100 1006.4
20260509083516 13 102 2.0 6.0 0.00 0.00 0.00 100 1006.6
20260509082516 13 176 0.0 0.0 0.00 0.00 0.00 100 1006.6
20260509081536 13 36 0.0 1.0 0.00 0.00 0.00 100 1006.5
20260509080536 13 0.0 0.0 0.00 0.00 0.00 100 1006.6
20260509075516 13 0.0 0.0 0.00 0.00 0.00 100 1006.5
20260509074516 12 0.0 0.0 0.00 0.00 0.00 100 1006.4
20260509073515 12 0.0 0.0 0.00 0.00 0.00 100 1006.4
20260509072536 12 13 0.0 1.0 0.00 0.00 0.00 100 1006.5
20260509071515 12 0.0 0.0 0.00 0.00 0.00 100 1006.5
20260509070515 12 0.0 0.0 0.00 0.00 0.00 100 1006.5
20260509065535 12 0.0 0.0 0.00 0.00 0.00 100 1006.6
20260509064516 12 100 0.0 2.0 0.00 0.00 0.00 100 1006.7
20260509063515 13 0.0 0.0 0.00 0.00 0.00 100 1006.9
20260509062515 12 0.0 0.0 0.00 0.00 0.00 100 1007.0
20260509061515 13 0.0 0.0 0.00 0.00 0.00 100 1007.1
20260509060515 13 0.0 0.0 0.00 0.00 0.00 100 1007.2
20260509055515 13 0.0 0.0 0.00 0.00 0.00 100 1007.2
20260509054515 13 0.0 0.0 0.00 0.00 0.00 100 1007.3
20260509053515 13 0.0 0.0 0.00 0.00 0.00 100 1007.5
20260509052515 13 0.0 0.0 0.00 0.00 0.00 100 1007.5
20260509051516 13 0.0 0.0 0.00 0.00 0.00 100 1007.6
20260509050515 13 0.0 0.0 0.00 0.00 0.00 100 1007.7
20260509045515 13 0.0 0.0 0.00 0.00 0.00 100 1007.9
20260509044515 13 23 0.0 2.0 0.00 0.00 0.00 100 1007.8
20260509043515 13 0.0 0.0 0.00 0.00 0.00 100 1007.9
20260509042515 13 191 0.0 1.0 0.00 0.00 0.00 100 1007.7
20260509041515 13 0.0 0.0 0.00 0.00 0.00 100 1007.7
20260509040515 13 0.0 0.0 0.00 0.00 0.00 100 1007.6
20260509035515 13 0.0 0.0 0.00 0.00 0.00 100 1007.5
20260509034515 13 101 0.0 1.0 0.00 0.00 0.00 100 1007.5